📊 Raw Sensor Data

Showing records 33851 to 33875 of 84,805 total

ID Distance (ft) Battery V Battery A Int Temp (°F) Int Humid (%) Ext Temp (°F) Solar V RSSI SNR Time Stamp
50967 15.1 3.94 0 94 51 88 4.50 -72 8 09/03/2025 06:45 PM
50966 15.1 3.99 22 97 51 88 4.50 -71 8 09/03/2025 06:30 PM
50965 15.2 4.03 52 99 51 90 4.60 -71 8 09/03/2025 06:15 PM
50964 15.2 3.92 7 102 49 91 5.10 -72 7 09/03/2025 06:00 PM
50963 15.3 4.10 8 104 49 93 5.10 -71 8 09/03/2025 05:45 PM
50962 15.3 3.92 8 105 48 95 5.10 -72 7 09/03/2025 05:30 PM
50961 15.3 3.92 8 106 47 95 5.10 -73 8 09/03/2025 05:15 PM
50960 15.3 3.92 8 108 47 96 5.10 -72 8 09/03/2025 05:00 PM
50959 15.3 3.92 0 109 46 96 5.10 -72 8 09/03/2025 04:45 PM
50958 15.3 3.93 8 109 45 96 5.10 -73 8 09/03/2025 04:30 PM
50957 15.3 3.92 0 110 44 99 5.20 -72 7 09/03/2025 04:15 PM
50956 15.3 3.92 8 109 44 97 5.20 -73 8 09/03/2025 04:00 PM
50955 15.3 3.92 8 109 43 99 5.20 -73 8 09/03/2025 03:45 PM
50954 15.3 3.92 8 108 43 98 5.20 -73 8 09/03/2025 03:30 PM
50953 15.3 3.92 0 107 42 96 5.10 -73 8 09/03/2025 03:15 PM
50952 15.3 4.05 8 106 42 95 5.20 -73 8 09/03/2025 03:00 PM
50951 15.3 3.92 8 105 42 93 5.10 -72 7 09/03/2025 02:45 PM
50950 15.3 3.92 8 104 42 92 5.10 -73 7 09/03/2025 02:30 PM
50949 15.3 3.92 0 103 41 89 5.10 -72 8 09/03/2025 02:15 PM
50948 15.3 3.91 8 102 41 91 5.10 -72 6 09/03/2025 02:00 PM
50947 15.4 3.91 8 99 42 91 5.10 -73 8 09/03/2025 01:45 PM
50946 15.3 3.91 5 98 42 86 5.10 -73 8 09/03/2025 01:30 PM
50945 15.3 3.91 0 96 41 88 5.10 -72 8 09/03/2025 01:00 PM
50944 14.3 3.91 9 94 41 87 5.10 -72 8 09/03/2025 12:45 PM
50943 15.3 3.91 8 92 41 86 5.10 -74 6 09/03/2025 12:30 PM